KPAWILLO7 Weather Reports


time (UTC)temp
C
wind
direction
speed
KPH
gust
KPH
rain 1hr
cm
rain 24hr
cm
rain mn
cm
humidity
%
barometer
mb
20260505125003 18 1 8.0 22.5 0.00 0.00 0.00 58 1012.4
20260505124503 18 2 6.4 22.5 0.00 0.00 0.00 58 1012.4
20260505124004 18 1 6.4 9.7 0.00 0.00 0.00 59 1012.4
20260505123503 18 1 8.0 9.7 0.00 0.00 0.00 60 1012.3
20260505123004 17 1 8.0 9.7 0.00 0.00 0.00 60 1012.3
20260505122504 17 2 8.0 17.7 0.00 0.00 0.00 60 1012.2
20260505122004 17 1 8.0 17.7 0.00 0.00 0.00 61 1012.2
20260505121503 17 2 6.4 11.3 0.00 0.00 0.00 62 1012.1
20260505121003 17 2 8.0 11.3 0.00 0.00 0.00 62 1012.2
20260505120503 17 2 8.0 11.3 0.00 0.00 0.00 62 1012.3
20260505120004 17 1 6.4 9.7 0.00 0.00 0.00 62 1012.3
20260505115504 17 1 6.4 11.3 0.00 0.00 0.00 63 1012.2
20260505115003 17 2 6.4 11.3 0.00 0.00 0.00 64 1012.2
20260505114504 16 1 6.4 11.3 0.00 0.00 0.00 65 1012.2
20260505114004 16 1 6.4 6.4 0.00 0.00 0.00 66 1012.2
20260505113503 16 1 6.4 17.7 0.00 0.00 0.00 66 1012.2
20260505113004 16 1 6.4 17.7 0.00 0.00 0.00 67 1012.1
20260505112505 16 1 6.4 14.5 0.00 0.00 0.00 67 1012.0
20260505112003 16 2 8.0 14.5 0.00 0.00 0.00 67 1011.9
20260505111504 16 1 6.4 8.0 0.00 0.00 0.00 68 1011.9
20260505111004 15 2 6.4 11.3 0.00 0.00 0.00 69 1011.9
20260505102003 16 2 6.4 11.3 0.00 0.00 0.00 68 1011.7
20260505101504 16 1 6.4 11.3 0.00 0.00 0.00 68 1011.6
20260505101003 16 2 6.4 9.7 0.00 0.00 0.00 68 1011.5
20260505100503 16 1 6.4 9.7 0.00 0.00 0.00 67 1011.5
20260505100003 16 1 6.4 9.7 0.00 0.00 0.00 67 1011.4
20260505095504 16 1 6.4 8.0 0.00 0.00 0.00 67 1011.4
20260505095003 16 1 6.4 8.0 0.00 0.00 0.00 67 1011.3
20260505094503 16 1 4.8 6.4 0.00 0.00 0.00 68 1011.2
20260505094004 16 1 4.8 6.4 0.00 0.00 0.00 68 1011.2
20260505093503 15 2 4.8 8.0 0.00 0.00 0.00 68 1011.2
20260505093003 15 1 6.4 8.0 0.00 0.00 0.00 68 1011.2
20260505092503 15 1 4.8 8.0 0.00 0.00 0.00 69 1011.2
20260505091503 15 1 6.4 12.9 0.00 0.00 0.00 70 1011.3
20260505091003 15 2 4.8 8.0 0.00 0.00 0.00 70 1011.3
20260505090503 15 2 4.8 8.0 0.00 0.00 0.00 70 1011.1
20260505090004 15 2 4.8 8.0 0.00 0.00 0.00 70 1011.1
20260505085503 15 1 4.8 4.8 0.00 0.00 0.00 70 1011.2
20260505084504 15 1 1.6 4.8 0.00 0.00 0.00 69 1011.3
20260505084003 15 1 0.0 1.6 0.00 0.00 0.00 69 1011.3
20260505083503 15 1 1.6 3.2 0.00 0.00 0.00 68 1011.2
20260505083003 15 1 1.6 4.8 0.00 0.00 0.00 68 1011.3
20260505082503 15 1 3.2 6.4 0.00 0.00 0.00 68 1011.3
20260505081504 15 1 3.2 6.4 0.00 0.00 0.00 68 1011.2
20260505080504 15 1 6.4 14.5 0.00 0.00 0.00 68 1011.3
20260505080004 15 1 4.8 6.4 0.00 0.00 0.00 68 1011.3
20260505075503 15 1 4.8 6.4 0.00 0.00 0.00 68 1011.3
20260505075004 15 1 4.8 6.4 0.00 0.00 0.00 67 1011.4
20260505074504 15 2 6.4 9.7 0.00 0.00 0.00 67 1011.3
20260505074003 15 1 6.4 9.7 0.00 0.00 0.00 67 1011.3
20260505073503 15 2 4.8 6.4 0.00 0.00 0.00 67 1011.4
20260505073003 15 1 4.8 9.7 0.00 0.00 0.00 67 1011.3
20260505072504 15 2 4.8 9.7 0.00 0.00 0.00 66 1011.2
20260505071503 15 1 4.8 6.4 0.00 0.00 0.00 66 1011.2
20260505071003 16 2 6.4 6.4 0.00 0.00 0.00 66 1011.2
20260505070503 16 1 6.4 12.9 0.00 0.00 0.00 65 1011.2
20260505070003 16 2 6.4 12.9 0.00 0.00 0.00 65 1011.2
20260505065503 16 1 6.4 9.7 0.00 0.00 0.00 65 1011.2
20260505065003 16 2 6.4 12.9 0.00 0.00 0.00 65 1011.1
20260505063503 16 1 6.4 14.5 0.00 0.00 0.00 65 1011.0
20260505063003 16 2 6.4 9.7 0.00 0.00 0.00 65 1011.1
20260505062504 16 1 6.4 16.1 0.00 0.00 0.00 64 1011.1
20260505062003 16 1 6.4 16.1 0.00 0.00 0.00 64 1011.1
20260505061003 16 1 3.2 6.4 0.00 0.00 0.00 64 1011.1
20260505060504 16 1 4.8 9.7 0.00 0.00 0.00 63 1011.2
20260505060004 16 2 4.8 9.7 0.00 0.00 0.00 63 1011.2
20260505055503 16 1 4.8 9.7 0.00 0.00 0.00 63 1011.1
20260505055004 16 1 4.8 12.9 0.00 0.00 0.00 62 1011.1
20260505054504 16 1 4.8 12.9 0.00 0.00 0.00 62 1011.2
20260505054003 16 1 4.8 8.0 0.00 0.00 0.00 62 1011.2
20260505053004 16 1 4.8 6.4 0.00 0.00 0.00 61 1011.3
20260505052504 16 1 3.2 6.4 0.00 0.00 0.00 61 1011.3
20260505052003 16 1 3.2 4.8 0.00 0.00 0.00 61 1011.3
20260505051503 16 1 3.2 4.8 0.00 0.00 0.00 61 1011.3
20260505051005 16 1 3.2 4.8 0.00 0.00 0.00 61 1011.4
20260505041004 16 1 3.2 3.2 0.00 0.00 0.00 59 1011.2
20260505040503 16 2 1.6 3.2 0.00 0.00 0.00 59 1011.2
20260505040005 16 1 1.6 1.6 0.00 0.00 0.00 58 1011.2
20260505035503 16 1 3.2 6.4 0.00 0.00 0.00 57 1011.2
20260505035003 16 1 3.2 6.4 0.00 0.00 0.00 56 1011.2
20260505034503 16 1 3.2 3.2 0.00 0.00 0.00 55 1011.3
20260505034004 16 1 3.2 4.8 0.00 0.00 0.00 55 1011.2
20260505033503 17 1 3.2 4.8 0.00 0.00 0.00 53 1011.3
20260505032504 17 1 3.2 3.2 0.00 0.00 0.00 51 1011.3
20260505032003 17 1 3.2 3.2 0.00 0.00 0.00 50 1011.3
20260505031003 17 2 3.2 3.2 0.00 0.00 0.00 49 1011.3
20260505030504 17 1 3.2 3.2 0.00 0.00 0.00 48 1011.4
20260505030004 17 1 3.2 3.2 0.00 0.00 0.00 48 1011.3
20260505025504 17 1 3.2 3.2 0.00 0.00 0.00 47 1011.4
20260505025004 17 1 3.2 4.8 0.00 0.00 0.00 47 1011.4
20260505024504 17 1 3.2 4.8 0.00 0.00 0.00 47 1011.6
20260505023504 17 1 3.2 6.4 0.00 0.00 0.00 46 1011.6
20260505023003 17 1 1.6 3.2 0.00 0.00 0.00 46 1011.6
20260505022503 18 1 1.6 3.2 0.00 0.00 0.00 46 1011.7
20260505022003 18 1 1.6 3.2 0.00 0.00 0.00 45 1011.6
20260505021504 18 1 1.6 3.2 0.00 0.00 0.00 45 1011.6
20260505021004 18 1 1.6 1.6 0.00 0.00 0.00 45 1011.6
20260505020503 18 1 1.6 3.2 0.00 0.00 0.00 45 1011.5
20260505020003 18 1 1.6 3.2 0.00 0.00 0.00 45 1011.5
20260505015504 18 1 1.6 3.2 0.00 0.00 0.00 45 1011.5
20260505015003 18 1 1.6 3.2 0.00 0.00 0.00 45 1011.6
20260505014503 18 1 1.6 4.8 0.00 0.00 0.00 45 1011.5
20260505014003 18 1 3.2 9.7 0.00 0.00 0.00 44 1011.6
20260505013504 18 1 3.2 9.7 0.00 0.00 0.00 44 1011.6
20260505013003 18 1 3.2 3.2 0.00 0.00 0.00 44 1011.6
20260505012503 18 1 3.2 3.2 0.00 0.00 0.00 44 1011.5
20260505011504 18 1 1.6 1.6 0.00 0.00 0.00 43 1011.3
20260505011004 18 1 1.6 1.6 0.00 0.00 0.00 43 1011.3
20260505010004 19 1 1.6 1.6 0.00 0.00 0.00 42 1011.2
20260505005503 19 1 1.6 1.6 0.00 0.00 0.00 41 1011.1
20260505005004 19 1 1.6 4.8 0.00 0.00 0.00 41 1011.0
20260505004504 19 1 1.6 4.8 0.00 0.00 0.00 41 1010.9
20260505004003 19 1 1.6 3.2 0.00 0.00 0.00 40 1010.9
20260505003503 20 1 1.6 3.2 0.00 0.00 0.00 39 1010.9
20260505002504 20 1 3.2 4.8 0.00 0.00 0.00 39 1010.8
20260505002004 20 1 4.8 9.7 0.00 0.00 0.00 39 1010.7
20260505001503 20 2 4.8 9.7 0.00 0.00 0.00 39 1010.7
20260505000504 20 2 4.8 9.7 0.00 0.00 0.00 38 1010.8
20260505000004 20 2 4.8 9.7 0.00 0.00 0.00 38 1010.8
20260504235503 20 2 3.2 9.7 0.00 0.00 0.00 37 1010.7
20260504234505 20 1 4.8 8.0 0.00 0.00 0.00 37 1010.6
20260504234003 21 2 4.8 8.0 0.00 0.00 0.00 36 1010.6
20260504233503 21 1 4.8 8.0 0.00 0.00 0.00 36 1010.5
20260504233004 21 2 4.8 8.0 0.00 0.00 0.00 36 1010.5
20260504232503 21 1 4.8 16.1 0.00 0.00 0.00 35 1010.4
20260504232003 21 2 8.0 17.7 0.00 0.00 0.00 35 1010.4
20260504231503 21 2 8.0 17.7 0.00 0.00 0.00 35 1010.4
20260504231004 21 1 6.4 17.7 0.00 0.00 0.00 36 1010.4
20260504230503 21 1 8.0 8.0 0.00 0.00 0.00 35 1010.4
20260504230003 21 1 6.4 14.5 0.00 0.00 0.00 35 1010.4
20260504225504 21 2 6.4 16.1 0.00 0.00 0.00 35 1010.3
20260504225003 21 2 6.4 17.7 0.00 0.00 0.00 34 1010.4
20260504224503 21 1 8.0 17.7 0.00 0.00 0.00 34 1010.4
20260504224004 21 1 8.0 17.7 0.00 0.00 0.00 34 1010.5
20260504223503 21 1 8.0 17.7 0.00 0.00 0.00 34 1010.5
20260504222503 21 331 8.0 17.7 0.00 0.00 0.00 34 1010.5
20260504222003 21 194 6.4 11.3 0.00 0.00 0.00 34 1010.5
20260504221003 22 196 8.0 9.7 0.00 0.00 0.00 34 1010.5
20260504220503 21 311 6.4 11.3 0.00 0.00 0.00 34 1010.5
20260504215504 21 219 9.7 14.5 0.00 0.00 0.00 33 1010.6
20260504215003 21 195 8.0 14.5 0.00 0.00 0.00 35 1010.7
20260504214003 22 178 8.0 11.3 0.00 0.00 0.00 34 1010.7
20260504213504 22 228 8.0 11.3 0.00 0.00 0.00 33 1010.7
20260504213003 22 1 9.7 14.5 0.00 0.00 0.00 34 1010.8
20260504212503 22 2 12.9 17.7 0.00 0.00 0.00 33 1010.7
20260504212003 22 1 11.3 17.7 0.00 0.00 0.00 33 1010.8
20260504211504 22 356 11.3 17.7 0.00 0.00 0.00 32 1010.7
20260504211004 22 356 11.3 17.7 0.00 0.00 0.00 31 1010.7
20260504210503 22 1 8.0 12.9 0.00 0.00 0.00 32 1010.7
20260504210004 22 1 9.7 11.3 0.00 0.00 0.00 32 1010.7
20260504205504 22 1 11.3 25.7 0.00 0.00 0.00 31 1010.7
20260504205003 22 2 11.3 25.7 0.00 0.00 0.00 31 1010.7
20260504204003 22 356 11.3 25.7 0.00 0.00 0.00 32 1010.8
20260504203503 22 335 9.7 25.7 0.00 0.00 0.00 31 1010.8
20260504203004 22 351 8.0 14.5 0.00 0.00 0.00 32 1010.8
20260504202504 22 2 8.0 19.3 0.00 0.00 0.00 31 1010.8
20260504202003 22 2 9.7 19.3 0.00 0.00 0.00 32 1010.9
20260504201503 22 1 9.7 19.3 0.00 0.00 0.00 31 1010.8
20260504201004 22 2 11.3 16.1 0.00 0.00 0.00 31 1010.9
20260504200503 22 1 9.7 16.1 0.00 0.00 0.00 31 1011.0
20260504200003 22 2 11.3 17.7 0.00 0.00 0.00 31 1010.8
20260504195503 22 1 11.3 17.7 0.00 0.00 0.00 32 1010.8
20260504195004 22 1 11.3 17.7 0.00 0.00 0.00 31 1011.0
20260504194503 22 1 9.7 17.7 0.00 0.00 0.00 32 1010.9
20260504194003 22 1 6.4 14.5 0.00 0.00 0.00 32 1011.0
20260504193504 22 2 8.0 11.3 0.00 0.00 0.00 31 1011.1
20260504193003 22 2 8.0 19.3 0.00 0.00 0.00 32 1011.0
20260504192503 22 2 6.4 19.3 0.00 0.00 0.00 31 1011.2
20260504192003 22 2 6.4 11.3 0.00 0.00 0.00 31 1011.2
20260504191504 21 1 9.7 14.5 0.00 0.00 0.00 32 1011.3
20260504190503 22 1 11.3 14.5 0.00 0.00 0.00 32 1011.5
20260504190004 21 1 11.3 16.1 0.00 0.00 0.00 32 1011.5
20260504185503 21 1 11.3 16.1 0.00 0.00 0.00 32 1011.6
20260504185003 21 2 11.3 11.3 0.00 0.00 0.00 31 1011.7
20260504184004 21 1 9.7 14.5 0.00 0.00 0.00 31 1011.8
20260504183503 21 2 11.3 14.5 0.00 0.00 0.00 32 1011.9
20260504183004 21 2 9.7 14.5 0.00 0.00 0.00 32 1011.9
20260504182503 21 2 9.7 14.5 0.00 0.00 0.00 32 1011.9
20260504182004 21 2 9.7 14.5 0.00 0.00 0.00 33 1012.1
20260504181504 21 2 9.7 12.9 0.00 0.00 0.00 32 1012.1
20260504181003 21 1 12.9 16.1 0.00 0.00 0.00 34 1012.1
20260504180504 21 1 11.3 16.1 0.00 0.00 0.00 34 1012.2
20260504180004 21 1 9.7 16.1 0.00 0.00 0.00 34 1012.4
20260504175503 21 1 8.0 9.7 0.00 0.00 0.00 33 1012.4
20260504175003 21 2 9.7 14.5 0.00 0.00 0.00 33 1012.4
20260504174505 20 1 11.3 20.9 0.00 0.00 0.00 33 1012.5
20260504174004 20 2 12.9 20.9 0.00 0.00 0.00 33 1012.6
20260504173504 20 1 11.3 16.1 0.00 0.00 0.00 32 1012.7
20260504173004 21 2 12.9 20.9 0.00 0.00 0.00 34 1012.7
20260504172503 20 2 14.5 20.9 0.00 0.00 0.00 35 1012.8
20260504172004 20 2 11.3 16.1 0.00 0.00 0.00 33 1012.8
20260504171003 20 2 8.0 20.9 0.00 0.00 0.00 33 1012.9
20260504150503 17 1 4.8 9.7 0.00 0.00 0.00 42 1014.4
20260504141003 15 2 8.0 14.5 0.00 0.00 0.00 52 1014.5
20260504140504 15 2 6.4 14.5 0.00 0.00 0.00 53 1014.6